Weather History for Harlan, KY

Change the Weather History Date:

Tuesday, December 24, 2013

  Actual Average (KLOZ) Record (KLOZ)
Temperature  
Mean Temperature 26 °F 37 °F  
Max Temperature 32 °F 46 °F 72 °F (1964)
Min Temperature 19 °F 28 °F -7 °F (1983)
Degree Days  
Heating Degree Days 40 28  
Month to date heating degree days 620  
Since 1 July heating degree days 1450  
Cooling Degree Days 0 0  
Month to date cooling degree days 0  
Moisture  
Dew Point 18 °F    
Average Humidity 68    
Maximum Humidity 93    
Minimum Humidity 44    
Precipitation  
Precipitation 0.00 in 0.13 in 0.92 in (1988)
Month to date precipitation 3.37  
Sea Level Pressure  
Sea Level Pressure 30.38 in    
Wind  
Wind Speed 5 mph (WNW)    
Max Wind Speed 14 mph    
Max Gust Speed 18 mph    
Visibility 9 miles    
Events      
T = Trace of Precipitation, MM = Missing Value Source: NWS Daily Summary

Daily Weather History Graph

Daily Weather History Graph

Search for Another Location

Airport:

Trip Planner

Search our weather history database for the weather conditions in past years. The results will help you decide how hot, cold, wet, or windy it might be!

Date:

Astronomy

Dec. 24, 2013 Rise Set
Actual Time 7:44 AM EST 5:22 PM EST
Civil Twilight 7:15 AM EST 5:51 PM EST
Nautical Twilight 6:42 AM EST 6:23 PM EST
Astronomical Twilight 6:10 AM EST 6:55 PM EST
Moon No Moon Rise 11:47 AM EST (12/24)
Length of Visible Light 10h 36m
Length of Day
9h 38m
Waning Gibbous, 59% of the Moon is Illuminated
Dec 24
Waning Gibbous
Dec 25
Last Quarter
Jan 1
New
Jan 7
First Quarter
Jan 15
Full

Hourly Weather History & Observations

Time (EST) Temp. Windchill Dew Point Humidity Pressure Visibility Wind Dir Wind Speed Gust Speed Precip Events Conditions
12:15 AM 32.0 °F 28.7 °F 23.0 °F 69% 30.32 in 10.0 mi NNW 3.5 mph - N/A   Overcast
12:35 AM 32.0 °F - 23.0 °F 69% 30.31 in 10.0 mi Calm Calm - N/A   Overcast
12:55 AM 32.0 °F 26.4 °F 23.0 °F 69% 30.31 in 10.0 mi NE 5.8 mph - N/A   Overcast
1:15 AM 32.0 °F 26.4 °F 23.0 °F 69% 30.31 in 10.0 mi NW 5.8 mph - N/A   Overcast
1:35 AM 32.0 °F - 23.0 °F 69% 30.31 in 10.0 mi Calm Calm - N/A   Overcast
1:55 AM 32.0 °F - 23.0 °F 69% 30.30 in 10.0 mi Calm Calm - N/A   Overcast
2:15 AM 32.0 °F - 23.0 °F 69% 30.30 in 10.0 mi Calm Calm - N/A   Overcast
2:35 AM 32.0 °F 27.5 °F 23.0 °F 69% 30.30 in 10.0 mi WSW 4.6 mph - N/A   Overcast
2:55 AM 32.0 °F 28.7 °F 23.0 °F 69% 30.30 in 10.0 mi WNW 3.5 mph - N/A   Overcast
3:15 AM 32.0 °F 28.7 °F 23.0 °F 69% 30.30 in 10.0 mi West 3.5 mph - N/A   Overcast
3:35 AM 32.0 °F 26.4 °F 21.2 °F 64% 30.30 in 10.0 mi West 5.8 mph - N/A   Overcast
3:55 AM 32.0 °F 27.5 °F 23.0 °F 69% 30.30 in 10.0 mi West 4.6 mph - N/A   Overcast
4:15 AM 32.0 °F 26.4 °F 23.0 °F 69% 30.30 in 10.0 mi West 5.8 mph - N/A   Overcast
4:35 AM 32.0 °F 24.8 °F 23.0 °F 69% 30.30 in 10.0 mi WNW 8.1 mph - N/A   Overcast
4:55 AM 32.0 °F 24.8 °F 21.2 °F 64% 30.30 in 10.0 mi West 8.1 mph - N/A   Overcast
5:15 AM 32.0 °F 26.4 °F 23.0 °F 69% 30.29 in 10.0 mi NW 5.8 mph - N/A   Overcast
5:35 AM 30.2 °F 22.6 °F 23.0 °F 75% 30.30 in 10.0 mi WNW 8.1 mph - N/A   Overcast
5:55 AM 30.2 °F 22.6 °F 23.0 °F 75% 30.31 in 10.0 mi West 8.1 mph - N/A   Overcast
6:15 AM 30.2 °F 21.3 °F 23.0 °F 75% 30.32 in 10.0 mi West 10.4 mph - N/A   Overcast
6:35 AM 30.2 °F 21.3 °F 21.2 °F 69% 30.32 in 10.0 mi WNW 10.4 mph - N/A   Overcast
6:55 AM 30.2 °F 23.4 °F 23.0 °F 75% 30.32 in 10.0 mi West 6.9 mph - N/A   Overcast
7:15 AM 30.2 °F 22.6 °F 23.0 °F 75% 30.33 in 10.0 mi WNW 8.1 mph - N/A   Overcast
7:35 AM 30.2 °F 24.3 °F 23.0 °F 75% 30.33 in 10.0 mi West 5.8 mph - N/A   Overcast
7:55 AM 30.2 °F 21.3 °F 21.2 °F 69% 30.34 in 10.0 mi WNW 10.4 mph 17.3 mph N/A   Overcast
8:15 AM 30.2 °F 20.8 °F 21.2 °F 69% 30.35 in 10.0 mi WNW 11.5 mph - N/A   Overcast
8:35 AM 28.4 °F 17.5 °F 21.2 °F 74% 30.35 in 10.0 mi West 13.8 mph - N/A   Overcast
8:55 AM 28.4 °F 24.6 °F 23.0 °F 80% 30.37 in 7.0 mi NW 3.5 mph - N/A   Overcast
9:15 AM 28.4 °F 21.2 °F 23.0 °F 80% 30.38 in 3.0 mi West 6.9 mph - N/A   Overcast
9:35 AM 28.4 °F 18.5 °F 23.0 °F 80% 30.40 in 3.0 mi WNW 11.5 mph - N/A   Overcast
9:55 AM 28.4 °F 19.1 °F 21.2 °F 74% 30.41 in 2.5 mi NW 10.4 mph 18.4 mph N/A   Overcast
10:15 AM 26.6 °F 16.8 °F 21.2 °F 80% 30.41 in 2.0 mi WNW 10.4 mph 17.3 mph N/A   Overcast
10:35 AM 26.6 °F 19.1 °F 21.2 °F 80% 30.42 in 1.8 mi NW 6.9 mph - N/A   Overcast
10:55 AM 26.6 °F 19.1 °F 21.2 °F 80% 30.43 in 2.0 mi NW 6.9 mph - N/A   Overcast
11:15 AM 26.6 °F 16.8 °F 19.4 °F 74% 30.43 in 1.8 mi NW 10.4 mph 16.1 mph N/A   Overcast
11:35 AM 28.4 °F 22.2 °F 19.4 °F 69% 30.43 in 7.0 mi WNW 5.8 mph - N/A   Overcast
11:55 AM 28.4 °F 22.2 °F 17.6 °F 64% 30.42 in 10.0 mi West 5.8 mph - N/A   Overcast
12:15 PM 28.4 °F 20.4 °F 17.6 °F 64% 30.41 in 10.0 mi NNW 8.1 mph - N/A   Mostly Cloudy
12:35 PM 30.2 °F 25.4 °F 19.4 °F 64% 30.40 in 10.0 mi West 4.6 mph - N/A   Mostly Cloudy
12:55 PM 28.4 °F 19.1 °F 19.4 °F 69% 30.41 in 3.0 mi WNW 10.4 mph 17.3 mph N/A   Overcast
1:15 PM 28.4 °F 18.5 °F 17.6 °F 64% 30.41 in 10.0 mi WNW 11.5 mph 17.3 mph N/A   Overcast
1:35 PM 28.4 °F 20.4 °F 17.6 °F 64% 30.40 in 10.0 mi West 8.1 mph - N/A   Mostly Cloudy
1:55 PM 30.2 °F 23.4 °F 17.6 °F 60% 30.40 in 10.0 mi WSW 6.9 mph - N/A   Mostly Cloudy
2:15 PM 30.2 °F 23.4 °F 17.6 °F 60% 30.41 in 10.0 mi North 6.9 mph - N/A   Overcast
2:35 PM 30.2 °F 23.4 °F 14.0 °F 51% 30.41 in 10.0 mi NE 6.9 mph - N/A   Overcast
2:55 PM 30.2 °F 21.3 °F 15.8 °F 55% 30.42 in 10.0 mi WNW 10.4 mph - N/A   Overcast
3:15 PM 30.2 °F 25.4 °F 15.8 °F 55% 30.42 in 10.0 mi NW 4.6 mph - N/A   Overcast
3:35 PM 30.2 °F 24.3 °F 14.0 °F 51% 30.43 in 10.0 mi NW 5.8 mph - N/A   Scattered Clouds
3:55 PM 28.4 °F 20.4 °F 12.2 °F 51% 30.44 in 10.0 mi NW 8.1 mph - N/A   Clear
4:15 PM 30.2 °F 22.6 °F 10.4 °F 44% 30.44 in 10.0 mi WNW 8.1 mph - N/A   Clear
4:35 PM 30.2 °F 24.3 °F 12.2 °F 47% 30.43 in 10.0 mi West 5.8 mph - N/A   Clear
4:55 PM 28.4 °F 21.2 °F 12.2 °F 51% 30.44 in 10.0 mi WNW 6.9 mph - N/A   Scattered Clouds
5:15 PM 26.6 °F 20.0 °F 12.2 °F 55% 30.44 in 10.0 mi NNW 5.8 mph - N/A   Clear
5:35 PM 26.6 °F 21.2 °F 12.2 °F 55% 30.44 in 10.0 mi NNW 4.6 mph - N/A   Clear
5:55 PM 26.6 °F - 12.2 °F 55% 30.44 in 10.0 mi Calm Calm - N/A   Clear
6:15 PM 26.6 °F - 12.2 °F 55% 30.44 in 10.0 mi Calm Calm - N/A   Clear
6:35 PM 24.8 °F 20.5 °F 14.0 °F 64% 30.44 in 10.0 mi North 3.5 mph - N/A   Clear
6:55 PM 23.0 °F 18.4 °F 14.0 °F 68% 30.45 in 10.0 mi NNW 3.5 mph - N/A   Clear
7:15 PM 23.0 °F - 14.0 °F 68% 30.45 in 10.0 mi Calm Calm - N/A   Clear
7:35 PM 23.0 °F - 14.0 °F 68% 30.45 in 10.0 mi Calm Calm - N/A   Clear
7:55 PM 23.0 °F - 14.0 °F 68% 30.44 in 10.0 mi Calm Calm - N/A   Clear
8:15 PM 23.0 °F - 14.0 °F 68% 30.44 in 10.0 mi Calm Calm - N/A   Clear
8:35 PM 23.0 °F - 12.2 °F 63% 30.44 in 10.0 mi Calm Calm - N/A   Clear
8:55 PM 23.0 °F - 14.0 °F 68% 30.44 in 10.0 mi Calm Calm - N/A   Clear
9:15 PM 23.0 °F - 12.2 °F 63% 30.45 in 10.0 mi Calm Calm - N/A   Clear
9:35 PM 23.0 °F - 14.0 °F 68% 30.45 in 10.0 mi Calm Calm - N/A   Clear
9:55 PM 21.2 °F 16.4 °F 14.0 °F 74% 30.43 in 10.0 mi NE 3.5 mph - N/A   Clear
10:15 PM 21.2 °F - 14.0 °F 74% 30.43 in 10.0 mi Calm Calm - N/A   Clear
10:35 PM 21.2 °F - 14.0 °F 74% 30.43 in 10.0 mi Calm Calm - N/A   Clear
10:55 PM 21.2 °F - 15.8 °F 80% 30.42 in 10.0 mi Calm Calm - N/A   Clear
11:15 PM 21.2 °F - 17.6 °F 86% 30.41 in 10.0 mi Calm Calm - N/A   Clear
11:35 PM 19.4 °F - 17.6 °F 93% 30.40 in 10.0 mi Calm Calm - N/A   Clear
11:55 PM 21.2 °F - 15.8 °F 80% 30.41 in 10.0 mi Calm Calm - N/A   Clear